Torna al catalogo

STARLINK-34572

AttivoComunicazioniVLEO
NORAD 64720·PAYLOAD·🇺🇸 United States

Lanciato Jun 28, 2025 da Vandenberg Space Force Base

Loading…

Prossimi Passaggi (prossime 24 ore)

TLE

AggiornatoSource: CelesTrak SupGP

Epoca: Sep 14, 2026, 22:41 UTC

1 64720C 25142AA  26257.94562500 -.00028460  00000+0 -98954-3 0  2572
2 64720  70.0012 195.5713 0003080 266.9746  41.7176 15.29609739    11

Traccia STARLINK-34572 in tempo reale con AllMySat

Download on the App Store